Wind_Speed
23 27 26 20 18 23 29 36 41 49 45 37 38 50 56 54 51 49 47 43 42 41 43 45 57 63 56 59 56 42 45 46 48 50 49 54 50 50 46 47 47 46 41 39
27 29 18 24 23 33 33 33 42 47 39 28 49 55 50 38 37 36 34 35 38 39 36 37 47 58 61 56 59 48 42 48 47 50 52 54 50 49 48 44 46 48 43 39
25 27 25 23 32 36 36 26 35 34 51 48 28 42 42 43 33 21 21 25 32 34 36 39 37 49 61 60 58 57 46 41 48 48 48 48 50 49 51 49 47 49 47 46
19 29 27 26 32 26 32 24 30 41 39 27 23 15 43 25 19 24 20 20 23 30 32 35 35 44 51 62 52 61 54 44 42 45 46 46 44 48 52 50 49 47 48 48
31 29 22 22 22 24 36 27 34 43 41 30 24 13 19 28 21 21 27 26 28 28 29 35 36 38 49 58 53 53 60 54 44 44 44 49 48 50 45 46 47 47 47 45
25 23 14 15 17 24 26 31 36 17 12 1 16 8 12 14 22 30 27 23 23 22 23 31 35 38 45 48 57 52 48 54 51 46 43 44 50 45 51 48 44 43 50 49
30 18 9 8 24 24 20 29 5 6 4 6 23 20 16 11 23 35 36 31 22 20 21 27 32 38 46 46 53 52 50 52 53 51 48 43 40 39 34 38 51 45 45 44
11 19 16 24 21 19 30 10 5 7 5 17 26 4 6 12 30 36 34 28 22 19 20 22 21 32 38 42 45 57 51 54 49 50 48 46 42 39 38 34 37 43 53 49
10 13 29 18 12 21 11 11 21 10 14 3 7 9 17 14 35 38 35 26 15 14 12 20 21 24 31 37 41 46 54 53 54 48 46 44 44 46 44 43 41 33 37 48
11 22 20 15 26 7 16 19 7 6 5 6 5 8 10 31 40 40 34 23 12 10 5 12 18 23 28 32 36 33 41 47 37 51 47 48 49 48 48 49 48 46 42 30
21 15 22 30 20 24 13 6 10 13 8 3 5 6 14 28 34 38 32 21 14 7 3 8 14 19 25 29 30 32 34 39 35 34 39 40 40 41 41 41 45 48 50 45
17 14 22 33 18 12 7 14 17 6 5 10 7 9 10 28 29 32 27 19 12 7 3 9 11 16 20 24 29 28 30 31 32 33 34 37 35 34 32 32 36 42 47 48
12 7 13 15 4 5 16 26 27 14 21 9 3 7 21 27 26 27 24 16 11 7 5 7 10 16 16 20 26 31 28 30 29 27 26 27 28 30 29 30 30 33 35 41
20 22 24 18 31 34 38 30 24 14 6 7 16 27 26 25 25 27 20 16 11 9 6 6 11 10 11 23 32 32 28 29 29 27 27 27 27 29 32 34 36 39 38 39
17 22 25 34 31 31 29 23 20 16 19 8 16 24 20 22 21 24 18 13 8 5 5 7 10 8 7 14 23 27 30 28 28 27 28 28 30 32 34 35 38 41 43 44
20 20 22 42 23 12 23 24 11 15 18 16 16 15 16 16 16 17 16 13 12 10 10 10 11 9 6 9 14 25 29 26 26 24 27 27 31 35 38 37 38 40 43 40
22 23 18 15 15 24 6 3 7 11 11 12 11 12 13 13 15 16 15 15 16 16 16 16 14 13 12 10 12 18 26 27 26 24 24 25 29 30 31 36 36 38 41 43
34 27 19 19 21 3 2 11 9 11 9 6 10 13 13 13 13 13 12 14 16 18 19 20 19 17 14 13 12 11 12 18 23 23 19 21 20 25 27 29 31 34 36 38
25 26 10 6 4 16 13 1 7 10 7 5 12 12 11 10 7 7 10 14 18 21 23 24 24 23 21 16 12 9 9 12 13 13 13 13 15 18 24 26 29 31 35 36
10 18 21 8 2 5 4 5 8 7 4 12 15 12 10 7 3 6 8 14 19 22 24 25 25 25 23 22 21 19 13 8 3 3 7 10 12 14 15 17 19 23 27 30
16 17 28 25 10 11 13 7 7 1 6 15 12 9 5 2 5 9 14 17 19 21 22 24 25 24 24 24 23 20 19 15 12 9 7 5 7 11 14 17 18 20 21 23
19 14 11 14 10 10 12 10 7 10 12 13 11 7 2 4 9 13 14 14 15 17 18 19 20 20 21 22 22 21 19 17 15 12 10 8 7 9 12 14 17 19 21 23
12 16 8 11 6 8 4 17 17 15 13 12 9 6 4 10 13 12 11 12 12 13 14 15 16 16 17 18 19 20 21 20 17 14 12 11 11 10 10 11 13 15 18 21
16 16 18 19 16 15 16 22 21 19 14 10 8 7 8 13 12 10 10 10 10 11 13 14 16 16 16 15 16 19 21 21 19 17 14 13 13 13 14 14 13 13 15 17
16 17 21 24 23 18 15 7 6 6 8 9 8 8 12 14 12 11 9 7 7 8 10 12 14 16 17 18 17 18 22 24 25 22 19 17 17 17 17 17 18 17 17 16
19 21 24 28 23 21 18 12 11 9 8 9 9 10 15 16 14 11 8 6 3 3 6 8 11 13 15 18 21 22 24 27 26 25 22 21 21 20 20 21 20 21 20 19
Wind_Direction
315 307 312 311 303 302 301 298 294 295 303 303 301 299 291 295 294 288 284 273 264 266 266 250 247 237 235 231 222 212 216 218 218 222 226 230 230 233 229 227 223 221 220 227
313 305 315 305 297 310 300 292 291 297 306 305 304 297 300 299 302 303 293 282 273 268 257 261 241 240 233 229 219 211 213 216 214 220 226 229 230 231 231 229 226 221 220 223
306 316 316 306 304 308 297 287 299 296 313 309 299 289 294 305 311 325 304 304 284 276 265 251 246 234 229 232 223 217 213 213 214 218 221 222 227 228 226 228 226 225 220 221
306 320 317 312 299 312 298 305 302 304 306 296 298 290 308 318 306 302 291 286 285 271 253 252 241 232 225 227 224 220 217 215 217 216 218 218 221 223 224 224 227 227 224 222
301 317 317 305 317 318 295 304 300 304 292 288 305 238 292 303 306 306 308 302 299 267 262 239 241 230 224 223 219 218 221 221 218 220 216 218 219 224 224 221 224 225 223 225
309 320 300 314 326 322 304 304 312 304 287 346 300 261 293 326 342 334 323 307 306 273 261 233 228 225 218 223 221 220 217 222 221 221 219 220 223 229 226 218 219 223 231 219
322 326 321 307 323 329 322 331 325 339 349 239 310 303 274 306 333 336 330 318 299 281 257 234 228 224 214 214 220 215 217 221 221 222 223 219 224 229 239 238 231 232 230 231
311 314 306 321 321 307 319 312 276 305 313 300 313 245 246 297 338 334 327 315 296 278 260 236 237 219 211 211 214 216 213 221 225 223 226 228 224 227 229 234 236 235 235 240
297 284 311 311 312 322 311 277 302 271 285 342 280 279 308 282 328 333 334 330 306 281 257 234 224 216 213 214 209 213 217 220 225 222 223 225 230 232 235 234 229 232 232 231
298 296 316 315 319 318 312 304 292 312 311 301 286 288 302 335 337 337 340 340 333 300 226 247 220 213 212 212 212 205 211 213 218 222 224 226 229 233 235 237 234 237 238 231
300 283 288 303 312 314 308 310 295 308 251 281 306 286 327 338 336 341 343 344 343 329 185 225 223 206 205 213 210 205 205 210 211 210 216 220 221 228 231 234 234 235 240 229
292 278 280 293 323 295 271 301 317 269 291 253 271 286 287 339 339 344 347 349 352 352 61 103 137 190 199 205 212 202 192 196 200 205 217 222 224 225 226 230 228 230 233 238
293 269 307 306 272 270 302 302 309 272 293 250 259 279 310 328 343 353 351 357 358 355 37 97 101 146 199 196 207 203 200 198 201 207 209 216 218 223 229 236 240 237 235 234
288 274 252 254 280 290 296 305 311 301 254 269 262 291 324 333 348 356 2 5 5 7 34 73 101 102 160 194 206 203 205 205 210 216 224 228 237 241 245 246 246 245 250 244
238 255 266 287 290 297 293 293 303 269 269 262 294 305 325 332 348 355 7 12 19 25 37 55 84 105 145 156 180 196 199 203 210 218 226 235 241 250 253 253 253 251 252 246
270 265 288 297 304 292 293 300 282 270 276 278 311 324 344 340 349 0 14 31 48 59 63 63 66 95 140 160 174 175 193 199 203 213 223 233 239 240 242 244 245 243 240 240
263 271 289 277 297 306 287 25 341 311 284 287 317 332 346 347 354 6 28 35 47 60 66 72 74 77 93 122 137 173 184 195 204 222 231 247 237 238 242 241 240 238 237 239
258 262 264 280 302 359 216 320 323 313 316 329 345 347 344 345 353 0 28 55 69 70 71 72 71 77 79 80 92 122 161 198 207 237 238 237 233 234 239 241 238 235 234 236
248 238 232 250 265 289 295 258 327 323 343 3 352 330 329 331 352 27 39 54 63 68 72 73 71 69 70 74 83 106 151 192 212 221 227 228 228 228 233 239 238 237 237 240
228 225 218 223 231 237 225 358 351 338 38 346 338 329 325 320 5 80 87 82 76 72 71 73 71 67 64 63 64 64 66 76 91 212 229 228 232 232 229 231 234 235 236 238
199 210 222 241 259 276 261 252 344 1 324 330 328 321 328 308 124 118 107 91 83 77 71 67 66 65 61 58 55 53 52 46 36 26 3 308 270 261 251 245 243 241 240 238
233 203 215 233 232 269 242 227 320 298 317 324 324 311 273 168 140 129 108 93 83 77 71 66 60 55 52 48 45 39 36 31 26 19 5 346 325 290 273 262 255 252 249 245
219 221 242 216 236 264 289 299 294 287 299 306 309 282 218 171 154 138 118 101 88 78 69 60 54 49 42 38 34 28 19 11 2 355 342 333 323 310 295 276 265 261 257 255
230 241 259 263 258 258 299 297 285 268 273 283 286 254 210 180 169 154 135 115 97 82 69 56 46 39 31 27 23 20 15 10 1 348 332 315 300 291 289 286 279 265 259 258
262 264 260 259 265 271 296 304 302 255 250 267 269 235 211 192 185 172 156 137 118 92 71 55 44 36 30 22 15 11 10 8 3 354 340 322 306 294 284 276 275 270 265 256
268 287 272 272 282 277 270 271 277 265 275 272 268 237 207 199 193 190 184 172 137 84 52 37 27 19 16 14 12 7 5 4 0 353 342 330 316 302 288 281 274 268 265 259
Height
2981 2977 2972 2968 2964 2961 2957 2951 2943 2927 2927 2932 2922 2910 2893 2895 2894 2888 2885 2884 2885 2887 2889 2893 2900 2912 2920 2927 2938 2944 2950 2956 2963 2969 2975 2980 2986 2991 2997 3004 3010 3016 3021 3025
2976 2969 2967 2962 2960 2955 2949 2945 2932 2922 2922 2926 2912 2896 2888 2884 2884 2878 2874 2873 2874 2876 2879 2882 2887 2895 2907 2915 2925 2933 2940 2947 2952 2960 2967 2973 2980 2984 2992 2998 3004 3008 3016 3019
2969 2966 2961 2957 2952 2949 2939 2938 2930 2927 2910 2911 2905 2886 2881 2877 2877 2873 2869 2866 2865 2865 2867 2870 2875 2881 2894 2902 2912 2923 2932 2937 2944 2950 2958 2963 2971 2977 2983 2989 2996 3000 3007 3016
2963 2959 2955 2950 2945 2943 2931 2931 2928 2921 2919 2905 2906 2887 2869 2872 2869 2866 2863 2860 2857 2855 2855 2858 2863 2869 2878 2889 2902 2911 2921 2928 2935 2941 2946 2953 2961 2967 2973 2983 2991 2994 3000 3007
2958 2953 2949 2944 2941 2937 2926 2926 2922 2914 2907 2904 2892 2892 2872 2870 2865 2862 2859 2855 2851 2846 2844 2847 2853 2858 2869 2878 2890 2899 2909 2918 2925 2931 2938 2946 2952 2960 2967 2974 2980 2985 2990 2998
2953 2949 2944 2940 2936 2933 2927 2921 2913 2904 2901 2900 2888 2887 2868 2868 2864 2857 2853 2848 2843 2838 2835 2837 2841 2847 2855 2865 2876 2886 2895 2906 2915 2923 2931 2939 2946 2948 2955 2962 2969 2976 2983 2988
2946 2941 2939 2936 2931 2927 2925 2920 2912 2910 2906 2896 2885 2882 2872 2866 2862 2856 2848 2841 2838 2833 2830 2830 2833 2838 2846 2854 2866 2878 2887 2897 2907 2915 2922 2931 2940 2945 2949 2957 2963 2968 2974 2978
2943 2931 2935 2934 2931 2926 2920 2920 2919 2910 2902 2885 2879 2875 2868 2864 2860 2854 2846 2838 2832 2829 2826 2825 2828 2832 2839 2848 2858 2869 2880 2890 2898 2908 2915 2924 2934 2940 2946 2952 2958 2961 2966 2972
2944 2931 2930 2928 2925 2924 2919 2917 2915 2907 2898 2894 2876 2871 2865 2862 2858 2850 2841 2833 2827 2824 2821 2822 2825 2828 2835 2844 2853 2862 2872 2883 2891 2899 2909 2916 2925 2932 2939 2946 2953 2957 2961 2966
2943 2931 2923 2922 2921 2920 2917 2915 2911 2908 2904 2897 2876 2869 2866 2859 2851 2845 2836 2828 2825 2822 2819 2819 2821 2826 2832 2839 2849 2857 2866 2876 2884 2893 2903 2910 2916 2922 2929 2937 2944 2951 2956 2962
2940 2937 2922 2920 2917 2913 2913 2910 2909 2906 2901 2895 2885 2871 2866 2862 2854 2843 2836 2829 2825 2822 2819 2819 2819 2824 2830 2837 2845 2853 2862 2870 2879 2885 2896 2902 2910 2916 2922 2929 2936 2943 2949 2956
2936 2931 2920 2914 2910 2909 2908 2906 2906 2903 2898 2894 2887 2872 2866 2863 2856 2846 2837 2830 2827 2824 2821 2820 2816 2821 2827 2834 2842 2849 2857 2866 2873 2881 2888 2896 2904 2911 2916 2922 2929 2935 2940 2946
2930 2927 2921 2909 2908 2907 2905 2903 2900 2899 2894 2888 2888 2873 2866 2864 2856 2847 2839 2833 2829 2827 2824 2821 2821 2821 2828 2833 2840 2847 2854 2862 2870 2878 2885 2893 2900 2905 2911 2917 2922 2927 2933 2938
2927 2919 2919 2914 2906 2905 2900 2896 2895 2894 2890 2885 2880 2870 2867 2862 2855 2848 2842 2836 2833 2830 2828 2825 2823 2823 2827 2832 2839 2844 2851 2859 2867 2874 2881 2889 2894 2899 2905 2910 2916 2920 2925 2931
2919 2913 2913 2906 2901 2898 2894 2890 2889 2887 2885 2883 2876 2871 2867 2862 2857 2850 2845 2840 2836 2834 2831 2828 2825 2826 2829 2831 2834 2842 2850 2857 2865 2872 2879 2884 2889 2893 2898 2903 2907 2912 2917 2922
2911 2907 2905 2896 2895 2892 2888 2885 2882 2882 2880 2878 2874 2870 2867 2863 2859 2854 2848 2843 2839 2835 2833 2830 2828 2828 2831 2833 2836 2840 2849 2855 2863 2868 2875 2879 2882 2886 2890 2894 2898 2902 2907 2912
2905 2903 2904 2892 2891 2888 2884 2881 2880 2878 2876 2876 2873 2870 2866 2863 2859 2856 2851 2846 2841 2838 2836 2833 2831 2831 2833 2835 2838 2843 2848 2853 2859 2865 2869 2872 2874 2877 2881 2886 2889 2893 2898 2903
2897 2899 2902 2893 2891 2892 2879 2878 2877 2875 2873 2873 2870 2868 2866 2864 2861 2858 2855 2851 2848 2844 2841 2838 2837 2837 2836 2837 2838 2842 2846 2851 2856 2861 2863 2867 2869 2872 2876 2879 2882 2886 2890 2894
2887 2893 2895 2893 2889 2882 2875 2876 2875 2873 2872 2870 2869 2866 2865 2864 2863 2861 2858 2855 2851 2849 2846 2844 2843 2842 2843 2843 2844 2846 2848 2852 2856 2859 2861 2863 2865 2867 2870 2872 2875 2878 2882 2886
2883 2886 2890 2890 2889 2888 2875 2874 2872 2871 2871 2870 2868 2865 2864 2863 2863 2863 2862 2860 2857 2855 2853 2851 2850 2850 2850 2850 2850 2851 2853 2854 2856 2858 2860 2861 2862 2864 2865 2867 2869 2872 2874 2877
2881 2882 2883 2885 2886 2878 2874 2873 2871 2872 2876 2869 2867 2865 2864 2863 2864 2864 2864 2863 2861 2859 2858 2857 2856 2856 2856 2855 2856 2856 2856 2857 2858 2859 2860 2860 2860 2861 2862 2863 2865 2868 2870 2872
2877 2878 2880 2882 2883 2879 2871 2872 2873 2871 2868 2867 2866 2864 2864 2863 2864 2865 2865 2864 2864 2863 2863 2862 2862 2861 2860 2859 2859 2859 2859 2860 2860 2860 2860 2859 2859 2860 2860 2861 2861 2863 2864 2866
2875 2875 2875 2876 2874 2872 2871 2871 2869 2867 2866 2865 2864 2864 2864 2864 2865 2866 2866 2866 2867 2866 2865 2864 2864 2864 2863 2863 2862 2862 2861 2860 2860 2859 2859 2859 2858 2858 2858 2858 2858 2858 2859 2860
2869 2871 2870 2871 2869 2870 2869 2867 2864 2864 2864 2863 2863 2863 2863 2865 2866 2867 2867 2868 2868 2868 2867 2866 2865 2865 2864 2864 2863 2862 2861 2860 2859 2857 2857 2856 2856 2856 2855 2855 2854 2854 2854 2855
2867 2866 2865 2862 2863 2866 2866 2863 2861 2860 2861 2861 2861 2861 2862 2864 2866 2867 2868 2869 2869 2869 2868 2867 2866 2865 2865 2863 2863 2862 2861 2859 2857 2856 2854 2853 2851 2851 2850 2850 2850 2850 2849 2850
2860 2860 2858 2857 2860 2861 2862 2861 2860 2859 2859 2859 2858 2859 2860 2863 2864 2866 2867 2868 2868 2868 2868 2868 2867 2866 2866 2864 2862 2860 2858 2856 2854 2853 2851 2849 2847 2846 2845 2844 2844 2845 2845 2845